STARLINK-11319, 61251

Orbit data source: Space-Track

STARLINK-11319, 61251 is a payload satellite in LEO that was launched on Wed, 25 Sep 2024 UTC via an FALCON 9 launch vehicle from the Air Force Western Test Range (AFWTR). Payload-class satellites include a variety of spacecraft equipped with specific instruments for various scientific and technological missions. These include communications satellites like Starlink; space stations such as the ISS; scientific satellites like the Hubble; Earth observation satellites from companies like Planet Labs, Umbra, and HawkEye 360; GPS; miniature CubeSats for education and research; and military/defense satellites.

Loading next visibility...
Identifier
61251, 2024-175J
Orbit
LEO
Last TLE update
9 hours ago
Origin
Manufacturer
SpaceX/Seattle
Mission
Operational Commercial Communications
Bus & Motor
STARLINK V2M, Unknown motor
Mass
730 kg wet, ~700 kg dry
Launch date (UTC)
2024-09-25 (8 months ago)
Launch vehicle
FALCON 9
Launch site
Air Force Western Test Range (AFWTR)
Object type
Payload
Rocket body
Debris
Shape & HBR
Box + 2 Pan, 29 m
Radar Cross Section
36.964 m², Large (>1 m²)

Expand to show TLE details & history

TLE from 9 hours ago
0 STARLINK-11319
1 61251U 24175J   25139.10029397 -.00007127  00000-0 -54164-4 0  9998
2 61251  53.1589  68.7939 0000867  77.9743 282.1372 15.69648149 38298
Epoch: 2025-05-19T02:24Z
TLE epoch observation values (Epoch: 2025-05-19T02:24:25.399Z)
Latitude
Longitude
155.67031°
Altitude
360.696 km
Speed
7.694 km/s
True Right ascension
04h 35m 10s
True Declination
0° 00' 00"
Sunlit
Object was in daylight at epoch
Visualization orbit readout
Latitude
30.49786°
Longitude
179.7803°
Altitude
361.251 km
Speed
7.697 km/s
Apparent Right ascension
07h 16m 22s
Apparent Declination
-3° 45' 13"
Sunlit
Object is in daylight
Visualization observer readout
Local Sidereal Time
20:33:38
Azimuth
30.786° NE
Elevation
-49.841°
Doppler factor
1
Orbital elements
Apogee altitude
360.749 km
Perigee altitude
359.58 km
Semi-major axis
6,738.302 km
Eccentricity
0.00009
Inclination
53.1589°
RAAN
68.7939°
Arg. of periapsis
77.9743°
True anomaly
Unknown
Mean anomaly
282.1372°
Eccentric anomaly
Unknown
Mean motion
3.9239 °/min
Orbital period
91.75 mins
BSTAR
-0.000054164
Loading maneuver chart data...
Loading SW <> Apogee altitude chart data...
Loading historical data...
Loading historical data...
Loading historical data...
Loading historical data...
Loading historical data...
Loading historical data...
Loading historical data...

STARLINK-11319 Visibility forecast

Observer location: undefined°, undefined°

Span
Click to sort rows by Start time (UTC) header in descending order
Start Az.
Max El. time (UTC)
Max El. Az.
Max El.
End time (UTC)
End Az.
4 mins2025-05-19 22:29:30.612Z264.174° W2025-05-19 22:30:30.612Z295.189° NW31.858°2025-05-19 22:33:30.612Z36.236° NE
4 mins2025-05-20 04:54:30.612Z298.041° NW2025-05-20 04:55:30.612Z255.328° W42.508°2025-05-20 04:58:30.612Z138.289° SSE
|